Location: Celina Division
(33.3022°N, 96.7580°W)
Time: 11:58:29
(UTC+00:00)

SJ 16-02 - Pass Details

Date: 08 December 2021
Orbit: 605 x 616 km, 75.0° (Epoch: 23 January)

Event Time Altitude Azimuth Distance (km) Brightness Sun altitude
Rises 11:59:16 0° 212° (SSW) 2,849 4.6 -16.2°
Reaches altitude 10° 12:01:36 10° 220° (SW) 1,948 3.7 -15.7°
Maximum altitude 12:05:40 39° 289° (WNW) 912 1.7 -14.9°
Drops below altitude 10° 12:09:46 10° 359° (N) 1,956 3.7 -14.1°
Sets 12:12:08 0° 7° (N) 2,862 4.7 -13.6°
